Gunnison, CO

3:11 AM MDT on September 22, 2019 (GMT -0600)
Gunnison County

Weather History for KGUC - July, 2019

Change the Weather History Date:

Monday, July 22, 2019

  Actual Average Record
Temperature  
Mean Temperature 67 °F -  
Max Temperature 84 °F 77 °F 91 °F (2005)
Min Temperature 50 °F 45 °F 39 °F (1996)
Cooling Degree Days 2    
Growing Degree Days 17 (Base 50)    
Moisture  
Dew Point 44 °F    
Average Humidity 46    
Maximum Humidity 77    
Minimum Humidity 12    
Precipitation  
Precipitation 0.08 in - - ()
Sea Level Pressure  
Sea Level Pressure 30.21 in    
Wind  
Wind Speed 10 mph (NNE)    
Max Wind Speed 20 mph    
Max Gust Speed 32 mph    
Visibility 10 miles    
Events Rain , Thunderstorm    
Averages and records for this station are not official NWS values.
T = Trace of Precipitation, MM = Missing Value Source: NWS Daily Summary

Daily Weather History Graph

Daily Weather History Graph

Search for Another Location

Airport or City:

Astronomy

Jul. 22, 2019 Rise Set
Actual Time 6:01 AM MDT 8:26 PM MDT
Civil Twilight 5:30 AM MDT 8:57 PM MDT
Nautical Twilight 4:53 AM MDT 9:34 PM MDT
Astronomical Twilight 4:11 AM MDT 10:16 PM MDT
Moon 11:52 PM MDT 11:17 AM MDT
Length of Visible Light 15h 26m
Length of Day
14h 25m
Waning Gibbous, 72% of the Moon is Illuminated
Jul 22
Waning Gibbous
Jul 24
Last Quarter
Jul 31
New
Aug 7
First Quarter
Aug 15
Full

Hourly Weather History & Observations

Time (MDT) Temp. Dew Point Humidity Pressure Visibility Wind Dir Wind Speed Gust Speed Precip Events Conditions
12:56 AM 64.9 °F 46.0 °F 50% 30.14 in 10.0 mi East 13.8 mph - N/A   Clear
1:56 AM 62.1 °F 45.0 °F 53% 30.16 in 10.0 mi NNE 11.5 mph - N/A   Clear
2:56 AM 55.9 °F 43.0 °F 62% 30.16 in 10.0 mi NNW 8.1 mph - N/A   Clear
3:56 AM 52.0 °F 43.0 °F 71% 30.19 in 10.0 mi North 10.4 mph - N/A   Clear
4:56 AM 50.0 °F 42.1 °F 74% 30.21 in 10.0 mi North 10.4 mph - N/A   Clear
5:56 AM 50.0 °F 43.0 °F 77% 30.23 in 10.0 mi NNE 9.2 mph - N/A   Clear
6:56 AM 52.0 °F 44.1 °F 74% 30.23 in 10.0 mi North 8.1 mph - N/A   Clear
7:56 AM 60.1 °F 45.0 °F 57% 30.20 in 10.0 mi ENE 6.9 mph - N/A   Clear
8:56 AM 64.0 °F 46.0 °F 52% 30.22 in 10.0 mi NNE 3.5 mph - N/A   Clear
9:56 AM 68.0 °F 48.0 °F 49% 30.20 in 10.0 mi North 6.9 mph - N/A   Clear
10:56 AM 73.0 °F 48.0 °F 41% 30.18 in 10.0 mi Variable 3.5 mph - N/A   Clear
11:56 AM 77.0 °F 45.0 °F 32% 30.13 in 10.0 mi Variable 4.6 mph - N/A   Clear
12:56 PM 80.1 °F 46.0 °F 30% 30.11 in 10.0 mi Calm Calm - N/A   Clear
1:56 PM 82.9 °F 44.1 °F 25% 30.09 in 10.0 mi Variable 3.5 mph - N/A   Clear
2:56 PM 84.0 °F 26.1 °F 12% 30.09 in 10.0 mi Calm Calm - N/A   Clear
3:56 PM 84.9 °F 39.0 °F 20% 30.08 in 10.0 mi NNE 19.6 mph 32.2 mph N/A   Clear
4:19 PM 80.6 °F 42.8 °F 26% 30.39 in 10.0 mi ESE 19.6 mph 23.0 mph N/A   Mostly Cloudy
4:56 PM 75.9 °F 41.0 °F 29% 30.19 in 10.0 mi West 12.7 mph 20.7 mph N/A Thunderstorm Thunderstorm
5:00 PM 75.2 °F 41.0 °F 29% 30.44 in 8.0 mi WNW 9.2 mph 20.7 mph 0.00 in Rain , Thunderstorm Light Thunderstorms and Rain
5:21 PM 69.8 °F 46.4 °F 43% 30.44 in 10.0 mi ESE 18.4 mph 25.3 mph 0.03 in Rain Light Rain
5:56 PM 72.0 °F 45.0 °F 38% 30.21 in 10.0 mi WNW 5.8 mph - 0.07 in   Clear
6:56 PM 75.9 °F 48.0 °F 37% 30.19 in 10.0 mi ENE 6.9 mph - 0.01 in   Clear
7:56 PM 69.1 °F 50.0 °F 51% 30.19 in 10.0 mi NNW 6.9 mph - N/A   Partly Cloudy
8:56 PM 69.1 °F 46.0 °F 44% 30.20 in 10.0 mi East 17.3 mph - N/A   Partly Cloudy
9:56 PM 66.9 °F 45.0 °F 45% 30.21 in 10.0 mi ESE 10.4 mph - N/A   Clear
10:56 PM 64.9 °F 46.0 °F 50% 30.22 in 10.0 mi North 4.6 mph - N/A   Partly Cloudy
11:56 PM 59.0 °F 48.0 °F 67% 30.25 in 10.0 mi NNW 6.9 mph - N/A   Clear